Regional Weather Roundup
Issued by NWS

Home | Current Version | Previous Version | Text Only | Print | Product List | Glossary Off
Versions: 1 2 3 4 5 6 7 8 9 10 11 12 13 14 15 16 17 18 19 20 21 22 23 24 25 26 27 28 29 30 31 32 33 34 35 36 37 38 39 40 41 42 43 44 45 46 47 48 49 50

000
ASUS43 KDTX 270910
RWRMI
MICHIGAN HOURLY REGIONAL WEATHER ROUNDUP
NATIONAL WEATHER SERVICE DETROIT/PONTIAC MI
500 AM EDT WED AUG 27 2014

NOTE: "FAIR" INDICATES FEW OR NO CLOUDS BELOW 12,000 FEET WITH NO
SIGNIFICANT WEATHER AND/OR OBSTRUCTION TO VISIBILITY.

MIZ047>049-052>055-059>063-066>070-074>076-081>083-271000-
SOUTHEAST LOWER MICHIGAN

CITY           SKY/WX    TMP DP  RH WIND       PRES   REMARKS
ADRIAN         CLEAR     67  65  93 CALM      30.09F
ALMA           CLEAR     58  56  92 NW3       30.12S
ANN ARBOR      PTCLDY    66  63  90 N5        30.08F
BAD AXE        CLEAR     57  55  93 CALM      30.12S
DETROIT CITY   CLEAR     68  62  81 NE5       30.08S
DETROIT        CLOUDY    69  67  93 NW6       30.08S
FLINT          MOCLDY    67  59  75 NE7       30.10R
GROSSE ILE     MOCLDY    70  66  88 NW5       30.06F
HILLSDALE      CLEAR     64  64 100 CALM      30.10S
HOWELL         FOG       64  64  98 CALM      30.09S VSB 1

CITY           SKY/WX    TMP DP  RH WIND       PRES   REMARKS
JACKSON        CLEAR     62  61  96 CALM      30.10S
LAMBERTVILLE   PTCLDY    68  64  88 CALM      30.09S
LANSING        CLOUDY    62  60  93 N6        30.11S
LAPEER         NOT AVBL
MASON          PTCLDY    61  60  95 NW3       30.11R
MONROE         CLOUDY    68  66  94 CALM      30.07S
MT. CLEMENS    CLOUDY    64  61  88 N5        30.08S
PONTIAC        CLOUDY    66  62  87 E7        30.09R
PORT HOPE        N/A     64  55  72 VRB3      30.09F
PORT HURON     MOCLDY    63  59  88 N5        30.09S
TRI CITIES     CLOUDY    66  61  84 SE6       30.11F
YPSILANTI      MOCLDY    70  65  84 N5        30.09S HAZE
$$
MIZ043>046-050>051-056>058-064>065-071>073-077>080-271000-
SOUTHWEST LOWER MICHIGAN

CITY           SKY/WX    TMP DP  RH WIND       PRES   REMARKS
BATTLE CREEK   PTCLDY    63  59  87 N6        30.12R
BENTON HARBOR  PTCLDY    59  58  96 CALM      30.11S
BIG RAPIDS     MOCLDY    56  56 100 CALM      30.13S
COLDWATER      CLEAR     63  62  97 CALM      30.10S
HOLLAND        CLEAR     60  57  89 CALM      30.12F
GRAND RAPIDS   CLEAR     60  60 100 CALM      30.12S
KALAMAZOO      PTCLDY    62  59  90 N3        30.11R
MARSHALL       CLEAR     60  60  99 W8        30.10S
MUSKEGON       PTCLDY    60  57  89 CALM      30.12S
$$
MIZ016>042-271000-
NORTHERN LOWER MICHIGAN

CITY           SKY/WX    TMP DP  RH WIND       PRES   REMARKS
ALPENA         MOCLDY    53  52  96 W5        30.13S
BEAVER ISLAND  MOCLDY    60  52  75 NW6       30.15R
BELLAIRE       MOCLDY    56  54  92 CALM      30.15R
CADILLAC       CLOUDY    56  55  95 CALM      30.14R
CHARLEVOIX     MOCLDY    57  54  91 SW3       30.17S
FRANKFORT      CLOUDY    62  54  73 NE5       30.14S
GAYLORD        CLOUDY    55  51  86 CALM      30.15R
GRAYLING       CLOUDY    56  56 100 CALM      30.15S
HARBOR SPRINGS CLOUDY    54  52  91 CALM      30.14S
HOUGHTON LAKE  MOCLDY    53  52  96 E3        30.15R
MANISTEE       CLOUDY    57  54  88 SE3       30.15R
OSCODA         CLEAR     52  51  97 CALM      30.12S
PELLSTON       MOCLDY    50  49  96 CALM      30.14S
TRAVERSE CITY  CLOUDY    60  53  77 E5        30.13S
$$
MIZ007>008-015-271000-
EASTERN UPPER MICHIGAN

CITY           SKY/WX    TMP DP  RH WIND       PRES   REMARKS
KINROSS        MOCLDY    50  50 100 W6        30.12R
MACKINAC ISLAN MOCLDY    55  50  85 NW6       30.12R
NEWBERRY       MOCLDY    49  48  96 W7        30.13R
S. S. MARIE    MOCLDY    50  48  93 SW3       30.10S
$$
MIZ004>006-011>014-085-271000-
CENTRAL UPPER MICHIGAN

CITY           SKY/WX    TMP DP  RH WIND       PRES   REMARKS
MANISTIQUE     CLOUDY    51  49  93 N5        30.14R
ESCANABA       MOCLDY    54  48  82 NW6       30.15S
MENOMINEE      MOCLDY    55  50  82 CALM      30.16R
SAWYER-GWINN   LGT RAIN  51  48  90 CALM      30.14F
$$
MIZ001>003-009>011-084-271000-
WESTERN UPPER MICHIGAN

CITY           SKY/WX    TMP DP  RH WIND       PRES   REMARKS
IRON MOUNTAIN  LGT RAIN  54  50  86 NW3       30.17R
HOUGHTON       CLOUDY    55  51  86 W3        30.13F
COPPER HARBOR    N/A     58  46  64 CALM      30.12F
$$

ABBREVIATIONS USED IN REMARKS
   TC - TEMPERATURE IN CELSIUS
  WCI - WIND CHILL INDEX
   HX - HEAT INDEX
  VSB - VISIBILITY




USA.gov is the U.S. government's official web portal to all federal, state and local government web resources and services.